Location: Lowman
(44.0835°N, 115.6207°W)
Time: 06:43:33
(UTC+00:00)

Envisat - Pass Details

Date: 06 December 2022
Orbit: 763 x 765 km, 98.2° (Epoch: 07 February)

Event Time Altitude Azimuth Distance (km) Brightness Sun altitude
Rises 12:28:28 0° 8° (N) 3,244 6.3 -26.9°
Reaches altitude 10° 12:30:50 10° 4° (N) 2,313 5.4 -26.5°
Enters shadow 12:31:29 14° 1° (N) 2,065 5.2 -26.4°
